| time (UTC) | temp F | wind direction | speed MPH | gust MPH | rain 1hr in | rain 24hr in | rain mn in | humidity % | barometer mb |
| 20260906223950 | 87 | 208 | 9.0 | 13.0 | 0.00 | 0.00 | 0.00 | 19 | 1008.1 |
| 20260906223445 | 89 | 160 | 4.0 | 7.0 | 0.00 | 0.00 | 0.00 | 20 | 1008.5 |
| 20260906222943 | 89 | 193 | 4.0 | 4.0 | 0.00 | 0.00 | 0.00 | 20 | 1008.4 |
| 20260906222438 | 87 | 159 | 4.0 | 8.0 | 0.00 | 0.00 | 0.00 | 20 | 1008.6 |
| 20260906221935 | 85 | 342 | 4.0 | 10.0 | 0.00 | 0.00 | 0.00 | 21 | 1008.7 |
| 20260906221435 | 85 | 87 | 9.0 | 13.0 | 0.00 | 0.00 | 0.00 | 20 | 1008.6 |
| 20260906220931 | 85 | 313 | 1.0 | 10.0 | 0.00 | 0.00 | 0.00 | 21 | 1008.8 |
| 20260906220426 | 85 | 92 | 8.0 | 10.0 | 0.00 | 0.00 | 0.00 | 21 | 1008.8 |
| 20260906215924 | 84 | 28 | 7.0 | 8.0 | 0.00 | 0.00 | 0.00 | 25 | 1008.9 |
| 20260906215419 | 84 | 30 | 6.0 | 9.0 | 0.00 | 0.00 | 0.00 | 24 | 1009.1 |
| 20260906214918 | 84 | 30 | 5.0 | 7.0 | 0.00 | 0.00 | 0.00 | 24 | 1009.1 |
| 20260906214417 | 84 | 25 | 7.0 | 11.0 | 0.00 | 0.00 | 0.00 | 25 | 1009.1 |
| 20260906213910 | 84 | 65 | 6.0 | 8.0 | 0.00 | 0.00 | 0.00 | 25 | 1009.1 |
| 20260906213405 | 84 | 12 | 2.0 | 4.0 | 0.00 | 0.00 | 0.00 | 24 | 1009.3 |
| 20260906212903 | 84 | 53 | 5.0 | 10.0 | 0.00 | 0.00 | 0.00 | 23 | 1009.3 |
| 20260906212358 | 85 | 63 | 4.0 | 6.0 | 0.00 | 0.00 | 0.00 | 22 | 1009.4 |
| 20260906211858 | 84 | 93 | 9.0 | 11.0 | 0.00 | 0.00 | 0.00 | 23 | 1009.2 |
| 20260906211353 | 84 | 35 | 5.0 | 8.0 | 0.00 | 0.00 | 0.00 | 26 | 1009.4 |
| 20260906210848 | 84 | 24 | 5.0 | 9.0 | 0.00 | 0.00 | 0.00 | 24 | 1009.3 |
| 20260906210343 | 84 | 76 | 5.0 | 7.0 | 0.00 | 0.00 | 0.00 | 23 | 1009.3 |
| 20260906205838 | 82 | 24 | 7.0 | 13.0 | 0.00 | 0.00 | 0.00 | 26 | 1009.4 |
| 20260906205334 | 83 | 54 | 8.0 | 10.0 | 0.00 | 0.00 | 0.00 | 24 | 1009.9 |
| 20260906204830 | 83 | 50 | 7.0 | 9.0 | 0.00 | 0.00 | 0.00 | 25 | 1009.9 |
| 20260906204328 | 83 | 55 | 10.0 | 13.0 | 0.00 | 0.00 | 0.00 | 25 | 1009.9 |
| 20260906203822 | 83 | 44 | 8.0 | 9.0 | 0.00 | 0.00 | 0.00 | 26 | 1009.8 |
| 20260906203318 | 83 | 22 | 4.0 | 8.0 | 0.00 | 0.00 | 0.00 | 25 | 1009.9 |
| 20260906202815 | 83 | 60 | 6.0 | 9.0 | 0.00 | 0.00 | 0.00 | 25 | 1009.9 |
| 20260906202314 | 82 | 84 | 6.0 | 9.0 | 0.00 | 0.00 | 0.00 | 26 | 1009.9 |
| 20260906201809 | 83 | 8 | 6.0 | 9.0 | 0.00 | 0.00 | 0.00 | 28 | 1010.1 |
| 20260906201308 | 85 | 56 | 6.0 | 8.0 | 0.00 | 0.00 | 0.00 | 25 | 1010.1 |
| 20260906200804 | 82 | 53 | 6.0 | 10.0 | 0.00 | 0.00 | 0.00 | 26 | 1010.2 |
| 20260906200300 | 82 | 37 | 4.0 | 7.0 | 0.00 | 0.00 | 0.00 | 27 | 1010.1 |
| 20260906195755 | 82 | 21 | 6.0 | 8.0 | 0.00 | 0.00 | 0.00 | 28 | 1010.8 |
| 20260906195251 | 84 | 77 | 7.0 | 9.0 | 0.00 | 0.00 | 0.00 | 29 | 1010.7 |
| 20260906194747 | 84 | 323 | 1.0 | 3.0 | 0.00 | 0.00 | 0.00 | 26 | 1010.9 |
| 20260906194243 | 83 | 327 | 0.0 | 3.0 | 0.00 | 0.00 | 0.00 | 25 | 1011.1 |
| 20260906193737 | 83 | 56 | 5.0 | 7.0 | 0.00 | 0.00 | 0.00 | 26 | 1011.2 |
| 20260906193232 | 81 | 202 | 3.0 | 6.0 | 0.00 | 0.00 | 0.00 | 27 | 1011.3 |
| 20260906192728 | 81 | 330 | 2.0 | 2.0 | 0.00 | 0.00 | 0.00 | 27 | 1011.3 |
| 20260906192222 | 81 | 45 | 3.0 | 3.0 | 0.00 | 0.00 | 0.00 | 30 | 1011.3 |
| 20260906191721 | 82 | 120 | 3.0 | 4.0 | 0.00 | 0.00 | 0.00 | 27 | 1011.6 |
| 20260906191221 | 81 | 304 | 2.0 | 6.0 | 0.00 | 0.00 | 0.00 | 29 | 1011.6 |
| 20260906190716 | 79 | 265 | 4.0 | 6.0 | 0.00 | 0.00 | 0.00 | 28 | 1011.8 |
| 20260906190210 | 78 | 54 | 5.0 | 9.0 | 0.00 | 0.00 | 0.00 | 30 | 1011.6 |
| 20260906185710 | 78 | 99 | 7.0 | 8.0 | 0.00 | 0.00 | 0.00 | 29 | 1011.9 |
| 20260906185209 | 78 | 105 | 4.0 | 9.0 | 0.00 | 0.00 | 0.00 | 29 | 1011.8 |
| 20260906184703 | 77 | 75 | 5.0 | 10.0 | 0.00 | 0.00 | 0.00 | 31 | 1011.8 |
| 20260906184159 | 77 | 51 | 7.0 | 8.0 | 0.00 | 0.00 | 0.00 | 32 | 1012.2 |
| 20260906183654 | 76 | 84 | 6.0 | 8.0 | 0.00 | 0.00 | 0.00 | 33 | 1012.1 |
| 20260906183150 | 76 | 51 | 6.0 | 9.0 | 0.00 | 0.00 | 0.00 | 32 | 1012.1 |
| 20260906182650 | 76 | 74 | 6.0 | 8.0 | 0.00 | 0.00 | 0.00 | 33 | 1012.2 |
| 20260906182147 | 75 | 76 | 6.0 | 7.0 | 0.00 | 0.00 | 0.00 | 34 | 1012.5 |
| 20260906181642 | 75 | 35 | 5.0 | 8.0 | 0.00 | 0.00 | 0.00 | 33 | 1012.7 |
| 20260906181138 | 74 | 24 | 5.0 | 8.0 | 0.00 | 0.00 | 0.00 | 35 | 1012.6 |
| 20260906180632 | 75 | 21 | 5.0 | 8.0 | 0.00 | 0.00 | 0.00 | 33 | 1012.6 |
| 20260906180127 | 75 | 39 | 4.0 | 8.0 | 0.00 | 0.00 | 0.00 | 35 | 1013.1 |
| 20260906175625 | 74 | 70 | 5.0 | 8.0 | 0.00 | 0.00 | 0.00 | 35 | 1012.9 |
| 20260906175120 | 74 | 43 | 5.0 | 7.0 | 0.00 | 0.00 | 0.00 | 35 | 1013.2 |
| 20260906174619 | 74 | 29 | 3.0 | 7.0 | 0.00 | 0.00 | 0.00 | 34 | 1013.1 |
| 20260906174113 | 74 | 32 | 4.0 | 6.0 | 0.00 | 0.00 | 0.00 | 35 | 1013.4 |
| 20260906173608 | 73 | 37 | 4.0 | 8.0 | 0.00 | 0.00 | 0.00 | 35 | 1013.4 |
| 20260906173104 | 73 | 64 | 3.0 | 9.0 | 0.00 | 0.00 | 0.00 | 35 | 1013.6 |
| 20260906172558 | 73 | 23 | 5.0 | 8.0 | 0.00 | 0.00 | 0.00 | 35 | 1013.5 |
| 20260906172054 | 74 | 349 | 4.0 | 7.0 | 0.00 | 0.00 | 0.00 | 36 | 1013.8 |
| 20260906171553 | 72 | 12 | 6.0 | 8.0 | 0.00 | 0.00 | 0.00 | 35 | 1013.8 |
| 20260906171049 | 72 | 71 | 6.0 | 7.0 | 0.00 | 0.00 | 0.00 | 35 | 1014.0 |
| 20260906170545 | 71 | 12 | 4.0 | 6.0 | 0.00 | 0.00 | 0.00 | 36 | 1014.1 |
| 20260906170043 | 72 | 20 | 3.0 | 8.0 | 0.00 | 0.00 | 0.00 | 38 | 1014.0 |
| 20260906165540 | 71 | 37 | 6.0 | 7.0 | 0.00 | 0.00 | 0.00 | 37 | 1014.0 |
| 20260906165035 | 72 | 30 | 8.0 | 10.0 | 0.00 | 0.00 | 0.00 | 37 | 1014.1 |
| 20260906164535 | 71 | 47 | 4.0 | 7.0 | 0.00 | 0.00 | 0.00 | 40 | 1014.0 |
| 20260906164031 | 71 | 42 | 5.0 | 8.0 | 0.00 | 0.00 | 0.00 | 40 | 1013.9 |
| 20260906163526 | 70 | 70 | 5.0 | 8.0 | 0.00 | 0.00 | 0.00 | 41 | 1014.1 |
| 20260906163021 | 71 | 27 | 5.0 | 7.0 | 0.00 | 0.00 | 0.00 | 41 | 1014.1 |
| 20260906162518 | 70 | 12 | 7.0 | 8.0 | 0.00 | 0.00 | 0.00 | 39 | 1014.0 |
| 20260906162014 | 70 | 1 | 6.0 | 8.0 | 0.00 | 0.00 | 0.00 | 40 | 1014.1 |
| 20260906161509 | 70 | 25 | 5.0 | 9.0 | 0.00 | 0.00 | 0.00 | 41 | 1014.0 |
| 20260906161007 | 69 | 358 | 6.0 | 8.0 | 0.00 | 0.00 | 0.00 | 41 | 1014.2 |
| 20260906160501 | 70 | 12 | 9.0 | 9.0 | 0.00 | 0.00 | 0.00 | 41 | 1014.2 |
| 20260906155958 | 70 | 45 | 3.0 | 6.0 | 0.00 | 0.00 | 0.00 | 41 | 1014.0 |
| 20260906155457 | 70 | 10 | 5.0 | 7.0 | 0.00 | 0.00 | 0.00 | 41 | 1014.2 |
| 20260906154948 | 69 | 25 | 4.0 | 6.0 | 0.00 | 0.00 | 0.00 | 42 | 1014.2 |
| 20260906154443 | 68 | 4 | 4.0 | 6.0 | 0.00 | 0.00 | 0.00 | 42 | 1014.2 |
| 20260906153941 | 68 | 12 | 5.0 | 7.0 | 0.00 | 0.00 | 0.00 | 41 | 1014.1 |
| 20260906153440 | 69 | 19 | 4.0 | 4.0 | 0.00 | 0.00 | 0.00 | 42 | 1014.5 |
| 20260906152936 | 68 | 69 | 6.0 | 7.0 | 0.00 | 0.00 | 0.00 | 42 | 1014.1 |
| 20260906152436 | 69 | 12 | 3.0 | 4.0 | 0.00 | 0.00 | 0.00 | 43 | 1014.2 |
| 20260906151935 | 68 | 10 | 4.0 | 4.0 | 0.00 | 0.00 | 0.00 | 42 | 1014.2 |
| 20260906151430 | 67 | 333 | 1.0 | 3.0 | 0.00 | 0.00 | 0.00 | 41 | 1014.1 |
| 20260906150926 | 65 | 334 | 5.0 | 7.0 | 0.00 | 0.00 | 0.00 | 41 | 1014.1 |
| 20260906150420 | 64 | 296 | 5.0 | 8.0 | 0.00 | 0.00 | 0.00 | 41 | 1014.2 |
| 20260906145915 | 63 | 298 | 5.0 | 8.0 | 0.00 | 0.00 | 0.00 | 41 | 1014.5 |
| 20260906145414 | 62 | 295 | 6.0 | 7.0 | 0.00 | 0.00 | 0.00 | 42 | 1014.5 |
| 20260906144909 | 62 | 293 | 7.0 | 10.0 | 0.00 | 0.00 | 0.00 | 42 | 1014.5 |
| 20260906144403 | 61 | 291 | 6.0 | 10.0 | 0.00 | 0.00 | 0.00 | 43 | 1014.2 |
| 20260906143859 | 61 | 315 | 6.0 | 10.0 | 0.00 | 0.00 | 0.00 | 43 | 1014.6 |
| 20260906143354 | 60 | 289 | 6.0 | 8.0 | 0.00 | 0.00 | 0.00 | 44 | 1014.7 |
| 20260906142850 | 59 | 279 | 9.0 | 10.0 | 0.00 | 0.00 | 0.00 | 44 | 1014.6 |
| 20260906142345 | 58 | 295 | 9.0 | 14.0 | 0.00 | 0.00 | 0.00 | 44 | 1014.1 |
| 20260906141844 | 58 | 294 | 9.0 | 13.0 | 0.00 | 0.00 | 0.00 | 45 | 1014.3 |
| 20260906141333 | 57 | 300 | 9.0 | 11.0 | 0.00 | 0.00 | 0.00 | 45 | 1014.3 |
| 20260906140832 | 57 | 278 | 11.0 | 11.0 | 0.00 | 0.00 | 0.00 | 44 | 1014.2 |
| 20260906140328 | 56 | 282 | 9.0 | 11.0 | 0.00 | 0.00 | 0.00 | 46 | 1014.2 |
| 20260906135825 | 55 | 288 | 10.0 | 14.0 | 0.00 | 0.00 | 0.00 | 45 | 1014.3 |
| 20260906135320 | 55 | 318 | 8.0 | 13.0 | 0.00 | 0.00 | 0.00 | 46 | 1014.6 |
| 20260906134815 | 54 | 300 | 9.0 | 14.0 | 0.00 | 0.00 | 0.00 | 46 | 1014.5 |
| 20260906134311 | 54 | 297 | 12.0 | 14.0 | 0.00 | 0.00 | 0.00 | 46 | 1014.1 |
| 20260906133806 | 54 | 289 | 11.0 | 13.0 | 0.00 | 0.00 | 0.00 | 46 | 1014.2 |
| 20260906133301 | 55 | 283 | 9.0 | 14.0 | 0.00 | 0.00 | 0.00 | 45 | 1014.1 |
| 20260906132757 | 53 | 288 | 12.0 | 15.0 | 0.00 | 0.00 | 0.00 | 47 | 1014.2 |
| 20260906132252 | 52 | 325 | 9.0 | 14.0 | 0.00 | 0.00 | 0.00 | 47 | 1014.3 |
| 20260906131747 | 52 | 277 | 7.0 | 10.0 | 0.00 | 0.00 | 0.00 | 48 | 1014.0 |
| 20260906131242 | 52 | 308 | 9.0 | 13.0 | 0.00 | 0.00 | 0.00 | 48 | 1014.1 |
| 20260906130737 | 51 | 286 | 9.0 | 11.0 | 0.00 | 0.00 | 0.00 | 49 | 1014.0 |
| 20260906130232 | 51 | 298 | 7.0 | 11.0 | 0.00 | 0.00 | 0.00 | 49 | 1013.9 |
| 20260906125731 | 51 | 280 | 12.0 | 14.0 | 0.00 | 0.00 | 0.00 | 48 | 1014.0 |
| 20260906125229 | 52 | 283 | 11.0 | 13.0 | 0.00 | 0.00 | 0.00 | 47 | 1014.1 |
| 20260906124724 | 51 | 296 | 10.0 | 14.0 | 0.00 | 0.00 | 0.00 | 48 | 1014.2 |
| 20260906124220 | 52 | 311 | 12.0 | 13.0 | 0.00 | 0.00 | 0.00 | 47 | 1014.0 |
| 20260906123718 | 52 | 307 | 4.0 | 14.0 | 0.00 | 0.00 | 0.00 | 48 | 1014.1 |
| 20260906123214 | 51 | 303 | 8.0 | 11.0 | 0.00 | 0.00 | 0.00 | 48 | 1013.9 |
| 20260906122713 | 51 | 293 | 8.0 | 10.0 | 0.00 | 0.00 | 0.00 | 48 | 1013.8 |
| 20260906122209 | 51 | 297 | 6.0 | 8.0 | 0.00 | 0.00 | 0.00 | 48 | 1013.9 |
| 20260906121705 | 51 | 313 | 9.0 | 13.0 | 0.00 | 0.00 | 0.00 | 48 | 1014.0 |
| 20260906121201 | 51 | 291 | 11.0 | 14.0 | 0.00 | 0.00 | 0.00 | 47 | 1013.9 |
| 20260906120656 | 52 | 291 | 8.0 | 13.0 | 0.00 | 0.00 | 0.00 | 47 | 1013.6 |
| 20260906120153 | 53 | 311 | 10.0 | 14.0 | 0.00 | 0.00 | 0.00 | 48 | 1013.8 |
| 20260906115648 | 53 | 318 | 12.0 | 15.0 | 0.00 | 0.00 | 0.00 | 48 | 1013.6 |
| 20260906115143 | 53 | 304 | 9.0 | 13.0 | 0.00 | 0.00 | 0.00 | 47 | 1013.8 |
| 20260906114642 | 53 | 329 | 7.0 | 13.0 | 0.00 | 0.00 | 0.00 | 46 | 1013.8 |
| 20260906114138 | 53 | 297 | 9.0 | 11.0 | 0.00 | 0.00 | 0.00 | 45 | 1014.0 |
| 20260906113637 | 53 | 288 | 12.0 | 14.0 | 0.00 | 0.00 | 0.00 | 46 | 1013.8 |
| 20260906113132 | 52 | 275 | 10.0 | 13.0 | 0.00 | 0.00 | 0.00 | 46 | 1014.0 |
| 20260906112631 | 53 | 299 | 8.0 | 11.0 | 0.00 | 0.00 | 0.00 | 46 | 1013.9 |
| 20260906112129 | 55 | 321 | 9.0 | 13.0 | 0.00 | 0.00 | 0.00 | 43 | 1013.8 |
| 20260906111628 | 53 | 284 | 11.0 | 13.0 | 0.00 | 0.00 | 0.00 | 46 | 1013.8 |
| 20260906111123 | 52 | 288 | 8.0 | 10.0 | 0.00 | 0.00 | 0.00 | 48 | 1013.6 |
| 20260906110617 | 52 | 279 | 11.0 | 14.0 | 0.00 | 0.00 | 0.00 | 48 | 1013.8 |
| 20260906110112 | 54 | 276 | 6.0 | 10.0 | 0.00 | 0.00 | 0.00 | 47 | 1013.6 |
| 20260906105607 | 55 | 293 | 7.0 | 9.0 | 0.00 | 0.00 | 0.00 | 45 | 1013.6 |
| 20260906105103 | 53 | 309 | 6.0 | 10.0 | 0.00 | 0.00 | 0.00 | 45 | 1013.6 |
| 20260906104602 | 54 | 294 | 9.0 | 11.0 | 0.00 | 0.00 | 0.00 | 43 | 1013.6 |
| 20260906104056 | 53 | 296 | 9.0 | 10.0 | 0.00 | 0.00 | 0.00 | 44 | 1013.5 |
| 20260906103554 | 54 | 284 | 11.0 | 13.0 | 0.00 | 0.00 | 0.00 | 43 | 1013.4 |
| 20260906103050 | 55 | 295 | 8.0 | 9.0 | 0.00 | 0.00 | 0.00 | 41 | 1013.4 |
| 20260906102549 | 55 | 287 | 6.0 | 9.0 | 0.00 | 0.00 | 0.00 | 41 | 1013.4 |
| 20260906102045 | 55 | 302 | 6.0 | 10.0 | 0.00 | 0.00 | 0.00 | 42 | 1013.4 |
| 20260906101539 | 55 | 300 | 8.0 | 10.0 | 0.00 | 0.00 | 0.00 | 42 | 1013.6 |
| 20260906101033 | 55 | 298 | 8.0 | 10.0 | 0.00 | 0.00 | 0.00 | 42 | 1013.4 |
| 20260906100530 | 56 | 288 | 6.0 | 10.0 | 0.00 | 0.00 | 0.00 | 40 | 1013.4 |
| 20260906100030 | 58 | 336 | 3.0 | 6.0 | 0.00 | 0.00 | 0.00 | 41 | 1013.2 |
| 20260906095524 | 58 | 355 | 6.0 | 8.0 | 0.00 | 0.00 | 0.00 | 40 | 1013.4 |
| 20260906095020 | 57 | 336 | 2.0 | 6.0 | 0.00 | 0.00 | 0.00 | 41 | 1013.4 |
| 20260906094518 | 57 | 314 | 4.0 | 7.0 | 0.00 | 0.00 | 0.00 | 41 | 1013.2 |
| 20260906094015 | 57 | 293 | 7.0 | 11.0 | 0.00 | 0.00 | 0.00 | 40 | 1013.4 |
| 20260906093510 | 56 | 318 | 8.0 | 10.0 | 0.00 | 0.00 | 0.00 | 41 | 1013.3 |
| 20260906093005 | 56 | 307 | 4.0 | 7.0 | 0.00 | 0.00 | 0.00 | 42 | 1013.4 |
| 20260906092500 | 56 | 290 | 7.0 | 8.0 | 0.00 | 0.00 | 0.00 | 42 | 1013.1 |
| 20260906091955 | 57 | 304 | 6.0 | 13.0 | 0.00 | 0.00 | 0.00 | 42 | 1013.5 |
| 20260906091450 | 57 | 293 | 10.0 | 14.0 | 0.00 | 0.00 | 0.00 | 41 | 1013.4 |
| 20260906090947 | 57 | 293 | 10.0 | 14.0 | 0.00 | 0.00 | 0.00 | 40 | 1013.2 |
| 20260906090441 | 57 | 268 | 9.0 | 14.0 | 0.00 | 0.00 | 0.00 | 40 | 1013.1 |
| 20260906085936 | 57 | 282 | 7.0 | 10.0 | 0.00 | 0.00 | 0.00 | 40 | 1013.1 |
| 20260906085435 | 56 | 317 | 8.0 | 9.0 | 0.00 | 0.00 | 0.00 | 41 | 1012.9 |
| 20260906084934 | 57 | 281 | 8.0 | 10.0 | 0.00 | 0.00 | 0.00 | 40 | 1012.8 |
| 20260906084429 | 57 | 296 | 7.0 | 10.0 | 0.00 | 0.00 | 0.00 | 40 | 1012.8 |
| 20260906083928 | 56 | 292 | 9.0 | 9.0 | 0.00 | 0.00 | 0.00 | 40 | 1012.9 |
| 20260906083424 | 57 | 313 | 7.0 | 10.0 | 0.00 | 0.00 | 0.00 | 40 | 1012.7 |
| 20260906082923 | 57 | 279 | 8.0 | 9.0 | 0.00 | 0.00 | 0.00 | 40 | 1012.9 |
| 20260906082419 | 57 | 282 | 7.0 | 10.0 | 0.00 | 0.00 | 0.00 | 40 | 1012.8 |
| 20260906081914 | 56 | 305 | 7.0 | 10.0 | 0.00 | 0.00 | 0.00 | 40 | 1012.9 |
| 20260906081410 | 57 | 292 | 8.0 | 9.0 | 0.00 | 0.00 | 0.00 | 42 | 1012.7 |
| 20260906080906 | 59 | 283 | 7.0 | 9.0 | 0.00 | 0.00 | 0.00 | 41 | 1012.8 |
| 20260906080403 | 59 | 272 | 6.0 | 8.0 | 0.00 | 0.00 | 0.00 | 39 | 1012.9 |
| 20260906075901 | 60 | 320 | 4.0 | 6.0 | 0.00 | 0.00 | 0.00 | 39 | 1012.8 |
| 20260906075356 | 60 | 316 | 2.0 | 4.0 | 0.00 | 0.00 | 0.00 | 39 | 1012.9 |
| 20260906074852 | 59 | 304 | 6.0 | 8.0 | 0.00 | 0.00 | 0.00 | 38 | 1012.8 |
| 20260906074351 | 59 | 293 | 7.0 | 8.0 | 0.00 | 0.00 | 0.00 | 39 | 1012.8 |
| 20260906073850 | 59 | 301 | 6.0 | 8.0 | 0.00 | 0.00 | 0.00 | 39 | 1012.7 |
| 20260906073345 | 58 | 281 | 6.0 | 8.0 | 0.00 | 0.00 | 0.00 | 41 | 1012.8 |
| 20260906072842 | 59 | 285 | 7.0 | 8.0 | 0.00 | 0.00 | 0.00 | 39 | 1012.9 |
| 20260906072337 | 59 | 305 | 6.0 | 9.0 | 0.00 | 0.00 | 0.00 | 41 | 1012.9 |
| 20260906071833 | 62 | 279 | 5.0 | 7.0 | 0.00 | 0.00 | 0.00 | 39 | 1012.7 |
| 20260906071328 | 60 | 327 | 2.0 | 4.0 | 0.00 | 0.00 | 0.00 | 43 | 1012.8 |
| 20260906070824 | 58 | 303 | 3.0 | 6.0 | 0.00 | 0.00 | 0.00 | 43 | 1012.8 |
| 20260906070319 | 58 | 272 | 6.0 | 8.0 | 0.00 | 0.00 | 0.00 | 44 | 1012.8 |
| 20260906065814 | 62 | 282 | 4.0 | 6.0 | 0.00 | 0.00 | 0.00 | 39 | 1012.8 |
| 20260906065309 | 62 | 268 | 4.0 | 6.0 | 0.00 | 0.00 | 0.00 | 38 | 1012.9 |
| 20260906064805 | 62 | 283 | 4.0 | 6.0 | 0.00 | 0.00 | 0.00 | 41 | 1012.7 |
| 20260906064301 | 63 | 270 | 5.0 | 6.0 | 0.00 | 0.00 | 0.00 | 41 | 1012.8 |
| 20260906063755 | 63 | 287 | 5.0 | 6.0 | 0.00 | 0.00 | 0.00 | 41 | 1012.5 |
| 20260906063251 | 62 | 291 | 4.0 | 4.0 | 0.00 | 0.00 | 0.00 | 41 | 1012.7 |
| 20260906062746 | 62 | 299 | 5.0 | 6.0 | 0.00 | 0.00 | 0.00 | 41 | 1012.5 |
| 20260906062245 | 61 | 287 | 5.0 | 6.0 | 0.00 | 0.00 | 0.00 | 42 | 1012.7 |
| 20260906061741 | 63 | 246 | 3.0 | 4.0 | 0.00 | 0.00 | 0.00 | 56 | 1013.1 |
| 20260906061237 | 66 | 341 | 7.0 | 9.0 | 0.00 | 0.00 | 0.00 | 55 | 1012.9 |
| 20260906060732 | 65 | 3 | 5.0 | 6.0 | 0.00 | 0.00 | 0.00 | 37 | 1012.7 |
| 20260906060230 | 61 | 304 | 4.0 | 7.0 | 0.00 | 0.00 | 0.00 | 44 | 1012.8 |
| 20260906055725 | 61 | 286 | 6.0 | 7.0 | 0.00 | 0.00 | 0.00 | 46 | 1013.1 |
| 20260906055220 | 60 | 274 | 4.0 | 7.0 | 0.00 | 0.00 | 0.00 | 47 | 1013.2 |
| 20260906054715 | 62 | 278 | 4.0 | 8.0 | 0.00 | 0.00 | 0.00 | 50 | 1012.9 |
| 20260906054210 | 67 | 356 | 1.0 | 2.0 | 0.00 | 0.00 | 0.00 | 36 | 1012.9 |
| 20260906053707 | 65 | 22 | 2.0 | 3.0 | 0.00 | 0.00 | 0.00 | 38 | 1012.8 |
| 20260906053202 | 63 | 341 | 1.0 | 2.0 | 0.00 | 0.00 | 0.00 | 48 | 1012.9 |
| 20260906052657 | 62 | 2 | 3.0 | 6.0 | 0.00 | 0.00 | 0.00 | 42 | 1012.8 |
| 20260906052154 | 64 | 12 | 10.0 | 10.0 | 0.00 | 0.00 | 0.00 | 56 | 1012.9 |
| 20260906051650 | 66 | 332 | 0.0 | 1.0 | 0.00 | 0.00 | 0.00 | 36 | 1012.7 |
| 20260906051149 | 66 | 303 | 2.0 | 2.0 | 0.00 | 0.00 | 0.00 | 37 | 1012.9 |
| 20260906050645 | 65 | 344 | 1.0 | 1.0 | 0.00 | 0.00 | 0.00 | 37 | 1012.7 |
| 20260906050140 | 65 | 294 | 1.0 | 2.0 | 0.00 | 0.00 | 0.00 | 39 | 1012.9 |
| 20260906045638 | 63 | 293 | 2.0 | 3.0 | 0.00 | 0.00 | 0.00 | 39 | 1012.6 |
| 20260906045134 | 61 | 40 | 2.0 | 6.0 | 0.00 | 0.00 | 0.00 | 46 | 1012.7 |
| 20260906044630 | 61 | 252 | 2.0 | 3.0 | 0.00 | 0.00 | 0.00 | 47 | 1012.7 |
| 20260906044125 | 68 | 283 | 1.0 | 2.0 | 0.00 | 0.00 | 0.00 | 30 | 1012.7 |
| 20260906043621 | 67 | 329 | 1.0 | 1.0 | 0.00 | 0.00 | 0.00 | 32 | 1012.6 |
| 20260906043116 | 66 | 328 | 2.0 | 2.0 | 0.00 | 0.00 | 0.00 | 40 | 1012.5 |
| 20260906042615 | 66 | 248 | 0.0 | 1.0 | 0.00 | 0.00 | 0.00 | 45 | 1012.5 |
| 20260906042110 | 67 | 5 | 1.0 | 2.0 | 0.00 | 0.00 | 0.00 | 35 | 1012.4 |
| 20260906041606 | 67 | 326 | 3.0 | 3.0 | 0.00 | 0.00 | 0.00 | 33 | 1012.4 |
| 20260906041100 | 66 | 335 | 0.0 | 1.0 | 0.00 | 0.00 | 0.00 | 42 | 1012.4 |
| 20260906040555 | 67 | 334 | 0.0 | 2.0 | 0.00 | 0.00 | 0.00 | 43 | 1012.5 |
| 20260906040046 | 67 | 324 | 2.0 | 2.0 | 0.00 | 0.00 | 0.00 | 52 | 1012.4 |
| 20260906035541 | 69 | 341 | 2.0 | 2.0 | 0.00 | 0.00 | 0.00 | 48 | 1012.1 |
| 20260906035037 | 68 | 326 | 2.0 | 3.0 | 0.00 | 0.00 | 0.00 | 46 | 1012.4 |
| 20260906034536 | 67 | 326 | 1.0 | 2.0 | 0.00 | 0.00 | 0.00 | 54 | 1012.5 |
| 20260906034031 | 67 | 343 | 3.0 | 3.0 | 0.00 | 0.00 | 0.00 | 55 | 1012.4 |
| 20260906033526 | 68 | 341 | 3.0 | 3.0 | 0.00 | 0.00 | 0.00 | 60 | 1012.5 |
| 20260906033022 | 69 | 351 | 3.0 | 4.0 | 0.00 | 0.00 | 0.00 | 57 | 1012.4 |
| 20260906032518 | 72 | 310 | 2.0 | 3.0 | 0.00 | 0.00 | 0.00 | 29 | 1012.4 |
| 20260906032013 | 71 | 318 | 3.0 | 3.0 | 0.00 | 0.00 | 0.00 | 29 | 1012.0 |
| 20260906031508 | 72 | 321 | 2.0 | 3.0 | 0.00 | 0.00 | 0.00 | 28 | 1012.2 |
| 20260906031003 | 73 | 312 | 3.0 | 4.0 | 0.00 | 0.00 | 0.00 | 27 | 1012.4 |
| 20260906030457 | 74 | 314 | 2.0 | 3.0 | 0.00 | 0.00 | 0.00 | 26 | 1012.2 |
| 20260906025951 | 74 | 301 | 2.0 | 3.0 | 0.00 | 0.00 | 0.00 | 26 | 1012.2 |
| 20260906025446 | 73 | 311 | 3.0 | 3.0 | 0.00 | 0.00 | 0.00 | 27 | 1012.1 |
| 20260906024945 | 74 | 304 | 2.0 | 3.0 | 0.00 | 0.00 | 0.00 | 27 | 1012.1 |
| 20260906024444 | 74 | 325 | 2.0 | 3.0 | 0.00 | 0.00 | 0.00 | 26 | 1012.1 |
| 20260906023939 | 75 | 294 | 2.0 | 3.0 | 0.00 | 0.00 | 0.00 | 26 | 1012.1 |
| 20260906023435 | 75 | 310 | 3.0 | 4.0 | 0.00 | 0.00 | 0.00 | 25 | 1011.9 |
| 20260906022930 | 76 | 297 | 2.0 | 3.0 | 0.00 | 0.00 | 0.00 | 25 | 1011.9 |
| 20260906022425 | 77 | 263 | 2.0 | 4.0 | 0.00 | 0.00 | 0.00 | 24 | 1011.8 |
| 20260906021920 | 75 | 261 | 2.0 | 2.0 | 0.00 | 0.00 | 0.00 | 25 | 1011.8 |
| 20260906021420 | 76 | 321 | 1.0 | 2.0 | 0.00 | 0.00 | 0.00 | 25 | 1011.6 |
| 20260906020914 | 77 | 324 | 1.0 | 1.0 | 0.00 | 0.00 | 0.00 | 25 | 1011.8 |
| 20260906020409 | 77 | 299 | 1.0 | 2.0 | 0.00 | 0.00 | 0.00 | 24 | 1011.6 |
| 20260906015904 | 77 | 255 | 2.0 | 2.0 | 0.00 | 0.00 | 0.00 | 24 | 1011.8 |
| 20260906015403 | 78 | 273 | 3.0 | 4.0 | 0.00 | 0.00 | 0.00 | 23 | 1011.8 |
| 20260906014902 | 79 | 254 | 3.0 | 4.0 | 0.00 | 0.00 | 0.00 | 24 | 1011.8 |
| 20260906014357 | 79 | 242 | 4.0 | 4.0 | 0.00 | 0.00 | 0.00 | 24 | 1011.5 |
| 20260906013853 | 79 | 236 | 4.0 | 4.0 | 0.00 | 0.00 | 0.00 | 24 | 1011.6 |
| 20260906013349 | 79 | 202 | 4.0 | 6.0 | 0.00 | 0.00 | 0.00 | 24 | 1011.5 |
| 20260906012844 | 79 | 229 | 3.0 | 3.0 | 0.00 | 0.00 | 0.00 | 25 | 1011.5 |
| 20260906012338 | 79 | 276 | 2.0 | 2.0 | 0.00 | 0.00 | 0.00 | 25 | 1011.6 |
| 20260906011833 | 80 | 206 | 2.0 | 6.0 | 0.00 | 0.00 | 0.00 | 24 | 1011.6 |
| 20260906011327 | 81 | 240 | 4.0 | 6.0 | 0.00 | 0.00 | 0.00 | 23 | 1011.5 |
| 20260906010818 | 81 | 258 | 4.0 | 4.0 | 0.00 | 0.00 | 0.00 | 23 | 1011.5 |
| 20260906010314 | 82 | 231 | 2.0 | 3.0 | 0.00 | 0.00 | 0.00 | 23 | 1011.4 |
| 20260906005809 | 82 | 230 | 3.0 | 4.0 | 0.00 | 0.00 | 0.00 | 23 | 1011.6 |
| 20260906005308 | 82 | 223 | 5.0 | 7.0 | 0.00 | 0.00 | 0.00 | 23 | 1011.4 |
| 20260906004807 | 83 | 262 | 4.0 | 8.0 | 0.00 | 0.00 | 0.00 | 22 | 1011.4 |
| 20260906004307 | 83 | 264 | 4.0 | 9.0 | 0.00 | 0.00 | 0.00 | 23 | 1011.4 |
| 20260906003802 | 83 | 225 | 3.0 | 13.0 | 0.00 | 0.00 | 0.00 | 23 | 1011.3 |
| 20260906003257 | 85 | 290 | 2.0 | 3.0 | 0.00 | 0.00 | 0.00 | 22 | 1011.3 |
| 20260906002752 | 85 | 177 | 4.0 | 6.0 | 0.00 | 0.00 | 0.00 | 22 | 1011.4 |
| 20260906002247 | 85 | 179 | 4.0 | 9.0 | 0.00 | 0.00 | 0.00 | 22 | 1011.3 |
| 20260906001743 | 86 | 162 | 3.0 | 8.0 | 0.00 | 0.00 | 0.00 | 23 | 1011.2 |
| 20260906001237 | 87 | 233 | 4.0 | 6.0 | 0.00 | 0.00 | 0.00 | 22 | 1011.3 |
| 20260906000733 | 87 | 294 | 3.0 | 6.0 | 0.00 | 0.00 | 0.00 | 21 | 1011.2 |
| 20260906000234 | 86 | 251 | 6.0 | 7.0 | 0.00 | 0.00 | 0.00 | 24 | 1011.4 |
| 20260905235727 | 85 | 320 | 4.0 | 10.0 | 0.00 | 0.00 | 0.00 | 24 | 1011.3 |
| 20260905235227 | 86 | 340 | 3.0 | 8.0 | 0.00 | 0.00 | 0.00 | 24 | 1010.9 |
| 20260905234722 | 87 | 302 | 1.0 | 7.0 | 0.00 | 0.00 | 0.00 | 20 | 1011.1 |
| 20260905234217 | 86 | 341 | 4.0 | 7.0 | 0.00 | 0.00 | 0.00 | 23 | 1010.8 |
| 20260905233713 | 84 | 306 | 4.0 | 7.0 | 0.00 | 0.00 | 0.00 | 27 | 1010.7 |
| 20260905233212 | 84 | 41 | 9.0 | 10.0 | 0.00 | 0.00 | 0.00 | 25 | 1010.9 |
| 20260905232708 | 86 | 2 | 4.0 | 19.0 | 0.00 | 0.00 | 0.00 | 21 | 1010.9 |
| 20260905232203 | 85 | 32 | 4.0 | 7.0 | 0.00 | 0.00 | 0.00 | 21 | 1010.9 |
| 20260905231659 | 86 | 93 | 4.0 | 8.0 | 0.00 | 0.00 | 0.00 | 21 | 1010.9 |
| 20260905231154 | 85 | 15 | 3.0 | 8.0 | 0.00 | 0.00 | 0.00 | 21 | 1011.3 |
| 20260905230650 | 84 | 338 | 0.0 | 0.0 | 0.00 | 0.00 | 0.00 | 23 | 1010.9 |
| 20260905230148 | 84 | 346 | 1.0 | 3.0 | 0.00 | 0.00 | 0.00 | 24 | 1011.2 |
| 20260905225648 | 85 | 329 | 0.0 | 0.0 | 0.00 | 0.00 | 0.00 | 27 | 1011.1 |
| 20260905225143 | 84 | 261 | 1.0 | 2.0 | 0.00 | 0.00 | 0.00 | 27 | 1011.1 |
| 20260905224641 | 85 | 309 | 1.0 | 1.0 | 0.00 | 0.00 | 0.00 | 27 | 1010.8 |